Location: Mountain View
(37.3861°N, 122.0839°W)
Time: 07:57:38
(UTC-07:00)

Tiangong - Visible Passes

Search period start: 10 May 2026 00:00
Search period end: 20 May 2026 00:00
Orbit: 379 x 384 km, 41.5° (Epoch: 10 May)

Date Brightness Start Highest point End Pass type
(mag) Time Alt. Az. Time Alt. Az. Time Alt. Az.
10 May 0.9 03:10:23 15° ENE 03:10:23 15° ENE 03:11:00 10° ENE visible
10 May -0.8 04:42:31 14° WNW 04:44:55 36° N 04:47:53 10° ENE visible
11 May -0.6 03:44:34 36° NNE 03:44:34 36° NNE 03:47:06 10° ENE visible
11 May -1.2 05:18:06 10° WNW 05:21:12 48° NNE 05:24:17 10° E visible
12 May -0.9 04:18:47 22° NW 04:20:23 39° N 04:23:23 10° ENE visible
13 May 0.3 03:20:57 23° NE 03:20:57 23° NE 03:22:29 10° ENE visible
13 May -1.8 04:53:23 10° WNW 04:56:32 68° NNE 04:59:42 10° ESE visible
14 May -1.3 03:55:25 46° N 03:55:42 48° NNE 03:58:46 10° E visible
14 May -1.7 05:29:27 10° W 05:32:28 43° SSW 05:35:29 10° SE visible
15 May -2.3 04:30:08 27° WNW 04:31:42 78° SSW 04:34:51 10° ESE visible
16 May 0.3 03:33:02 18° E 03:33:02 18° E 03:33:59 10° E visible
16 May -1.0 05:05:15 13° W 05:07:27 25° SSW 05:10:05 10° SSE visible
17 May -0.1 04:08:39 19° SE 04:08:39 19° SE 04:09:42 10° SE visible
18 May -1.0 21:11:41 10° SSW 21:14:15 24° SSE 21:15:23 19° ESE visible
19 May -2.3 21:46:43 10° WSW 21:49:51 75° SSE 21:50:51 39° E visible
